Homestead, FL

12:14 PM EST on February 20, 2017 (GMT -0500)
Dade County-Homestead Regional

Weather History for KHST - January, 2013

Change the Weather History Date:

Saturday, January 12, 2013

  Actual Average Record
Temperature  
Mean Temperature 75 °F -  
Max Temperature 79 °F 74 °F 86 °F (1938)
Min Temperature 71 °F 53 °F 33 °F (1956)
Cooling Degree Days 10    
Growing Degree Days 25 (Base 50)    
Moisture  
Dew Point 68 °F    
Average Humidity 79    
Maximum Humidity 86    
Minimum Humidity 68    
Precipitation  
Precipitation 0.00 in - - ()
Sea Level Pressure  
Sea Level Pressure 30.14 in    
Wind  
Wind Speed 9 mph (East)    
Max Wind Speed 15 mph    
Max Gust Speed -    
Visibility 10 miles    
Events Rain    
Averages and records for this station are not official NWS values.
T = Trace of Precipitation, MM = Missing Value Source: NWS Daily Summary

Daily Weather History Graph

Daily Weather History Graph

Search for Another Location

Airport or City:

Trip Planner

Search our weather history database for the weather conditions in past years. The results will help you decide how hot, cold, wet, or windy it might be!

Date:

Astronomy

Jan. 12, 2013 Rise Set
Actual Time 7:09 AM EST 5:50 PM EST
Civil Twilight 6:44 AM EST 6:15 PM EST
Nautical Twilight 6:16 AM EST 6:43 PM EST
Astronomical Twilight 5:48 AM EST 7:11 PM EST
Moon 7:36 AM EST (1/12) 7:05 PM EST (1/12)
Length of Visible Light 11h 31m
Length of Day
10h 41m
New Moon, 1% of the Moon is Illuminated
Jan 12
New Moon
Jan 18
First Quarter
Jan 26
Full
Feb 3
Last Quarter
Feb 10
New

Hourly Weather History & Observations

Time (EST) Temp. Dew Point Humidity Pressure Visibility Wind Dir Wind Speed Gust Speed Precip Events Conditions
12:55 AM 74.7 °F 69.1 °F 83% 30.16 in 10.0 mi ESE 10.4 mph - N/A   Clear
1:55 AM 73.9 °F 68.2 °F 82% 30.15 in 10.0 mi ESE 8.1 mph - N/A   Clear
2:55 AM 73.6 °F 68.2 °F 83% 30.14 in 10.0 mi East 8.1 mph - N/A   Clear
3:55 AM 73.2 °F 67.6 °F 83% 30.13 in 10.0 mi ESE 9.2 mph - N/A   Clear
4:55 AM 72.9 °F 67.6 °F 84% 30.12 in 10.0 mi East 6.9 mph - N/A   Clear
5:55 AM 72.7 °F 67.3 °F 83% 30.14 in 10.0 mi East 5.8 mph - N/A   Clear
6:43 AM 71.6 °F 66.2 °F 83% 30.16 in 10.0 mi East 4.6 mph - N/A   Light Drizzle
6:55 AM 71.1 °F 66.7 °F 86% 30.16 in 10.0 mi East 4.6 mph - 0.00 in Rain Light Rain
6:57 AM 71.6 °F 66.2 °F 83% 30.16 in 10.0 mi East 4.6 mph - N/A   Clear
7:55 AM 72.7 °F 66.6 °F 81% 30.17 in 10.0 mi ESE 5.8 mph - 0.00 in   Clear
8:55 AM 76.3 °F 67.6 °F 74% 30.18 in 10.0 mi East 9.2 mph - N/A   Clear
9:55 AM 77.9 °F 68.0 °F 71% 30.19 in 10.0 mi ESE 9.2 mph - N/A   Clear
10:55 AM 79.0 °F 68.7 °F 71% 30.19 in 10.0 mi East 10.4 mph - N/A   Clear
11:55 AM 79.3 °F 68.7 °F 70% 30.16 in 10.0 mi East 12.7 mph - N/A   Clear
12:55 PM 78.8 °F 68.7 °F 71% 30.13 in 10.0 mi East 15.0 mph - N/A   Clear
1:55 PM 79.5 °F 68.2 °F 68% 30.12 in 10.0 mi East 11.5 mph - N/A   Clear
2:55 PM 78.8 °F 68.7 °F 71% 30.11 in 10.0 mi East 12.7 mph - N/A   Clear
3:55 PM 78.4 °F 68.9 °F 72% 30.11 in 10.0 mi East 13.8 mph - N/A   Clear
4:55 PM 76.8 °F 68.5 °F 75% 30.11 in 10.0 mi East 9.2 mph - N/A   Scattered Clouds
5:05 PM 75.2 °F 69.8 °F 83% 30.11 in 10.0 mi East 10.4 mph - N/A   Mostly Cloudy
5:09 PM 75.2 °F 68.0 °F 78% 30.12 in 10.0 mi East 10.4 mph - N/A   Scattered Clouds
5:55 PM 74.1 °F 66.9 °F 78% 30.13 in 10.0 mi East 8.1 mph - N/A   Clear
6:55 PM 73.2 °F 66.9 °F 81% 30.12 in 10.0 mi East 5.8 mph - N/A   Clear
7:55 PM 72.1 °F 66.7 °F 83% 30.14 in 10.0 mi East 5.8 mph - N/A   Clear
8:55 PM 72.1 °F 67.1 °F 84% 30.14 in 10.0 mi ENE 5.8 mph - N/A   Partly Cloudy
9:55 PM 72.7 °F 66.4 °F 81% 30.13 in 10.0 mi East 6.9 mph - N/A   Partly Cloudy
10:55 PM 72.7 °F 66.9 °F 82% 30.12 in 10.0 mi East 6.9 mph - N/A   Clear
11:55 PM 73.4 °F 67.8 °F 83% 30.11 in 10.0 mi East 8.1 mph - N/A   Clear